Showing default

NVS-01, 56759

Orbit data source: Space-Track

NVS-01, 56759 is a payload satellite owned by ISRO (IN) in GEO that was launched on Mon, 29 May 2023 UTC via a GSLV MK II launch vehicle from the Sirharikota (SRI). Payload-class satellites include a variety of spacecraft equipped with specific instruments for various scientific and technological missions. These include communications satellites like Starlink; space stations such as the ISS; scientific satellites like the Hubble; Earth observation satellites from companies like Planet Labs, Umbra, and HawkEye 360; GPS; miniature CubeSats for education and research; and military/defense satellites.

Not visible in the next 10 days
Identifier
56759, 2023-076A
Orbit
GEO
Country
Flag of ININ / IND
Related business
Manufacturer
ISRO
Mission
Operational Civil Navigation
Bus & Motor
I2K, ISRO LAM
Mass
2,232 kg wet, ~1,000 kg dry
Launch date (UTC)
2023-05-29 (3 years ago)
Launch vehicle
GSLV MK II
Launch site
Sirharikota (SRI)
Object type
Payload
Rocket body
Debris
Shape & HBR
Box + 2 Pan, 4.8 m
Radar Cross Section
8.526 m², Large (>1 m²)

Expand to show TLE details & history
Last TLE update: 2 days ago

TLE from 2 days ago
0 NVS-01
1 56759U 23076A   26171.45373823 -.00000339  00000-0  00000+0 0  9997
2 56759   2.1573 244.1904 0003064  17.9405 299.3162  1.00277443 11142
Epoch: 2026-06-20T10:53Z
TLE epoch observation values (Epoch: 2026-06-20T10:53:22.983Z)
Latitude
-1.47483°
Longitude
129.43306°
Altitude
35,778.368 km
Speed
3.075 km/s
True Right ascension
13h 25m 47s
True Declination
-1° 28' 24"
Sunlit
Object was in daylight at epoch
Visualization orbit readout
Latitude
Unknown
Longitude
Unknown
Altitude
Unknown
Speed
Unknown
Apparent Right ascension
Unknown
Apparent Declination
Unknown
Sunlit
N/A
Visualization observer readout
Local Sidereal Time
21:29:49
Azimuth
Unknown
Elevation
Unknown
Doppler factor
Unknown
Orbital elements
Apogee altitude
35,798.996 km
Perigee altitude
35,773.158 km
Semi-major axis
42,164.214 km
Eccentricity
0.00031
Inclination
2.1573°
RAAN
244.1904°
Arg. of periapsis
17.9405°
True anomaly
299.28558°
Mean anomaly
299.3162°
Eccentric anomaly
299.30089°
Mean motion
0.25068 °/min
Orbital period
1,436.07 mins
BSTAR
0
Loading maneuver chart data...
Computing Atmospheric mass density...
Loading historical data...
Loading historical data...
Loading historical data...
Loading historical data...
Loading historical data...
Loading historical data...
Loading historical data...
Other satellites on launch #76 in the year 2023 (2023-05-29 UTC)

Documentation

Showing up to 5 results
|